Whitefield, NH

11:09 PM EDT on March 22, 2017 (GMT -0400)
Mount Washington Regional

Weather History for KHIE - December, 2012

Change the Weather History Date:

Tuesday, December 11, 2012

  Actual Average Record
Temperature  
Mean Temperature 32 °F -  
Max Temperature 37 °F 31 °F 55 °F (2015)
Min Temperature 26 °F 13 °F -4 °F (1997)
Degree Days  
Heating Degree Days 34    
Moisture  
Dew Point 26 °F    
Average Humidity 79    
Maximum Humidity 93    
Minimum Humidity 63    
Precipitation  
Precipitation 0.04 in - - ()
Sea Level Pressure  
Sea Level Pressure 29.84 in    
Wind  
Wind Speed 3 mph (West)    
Max Wind Speed 10 mph    
Max Gust Speed 16 mph    
Visibility 10 miles    
Events Rain    
Averages and records for this station are not official NWS values.
T = Trace of Precipitation, MM = Missing Value Source: NWS Daily Summary

Daily Weather History Graph

Daily Weather History Graph

Search for Another Location

Airport or City:

Trip Planner

Search our weather history database for the weather conditions in past years. The results will help you decide how hot, cold, wet, or windy it might be!

Date:

Astronomy

Dec. 11, 2012 Rise Set
Actual Time 7:12 AM EST 4:06 PM EST
Civil Twilight 6:39 AM EST 4:40 PM EST
Nautical Twilight 6:02 AM EST 5:16 PM EST
Astronomical Twilight 5:27 AM EST 5:51 PM EST
Moon 5:01 AM EST (12/11) 2:44 PM EST (12/11)
Length of Visible Light 10h 00m
Length of Day
8h 54m
Waning Crescent, 4% of the Moon is Illuminated
Dec 11
Waning Crescent
Dec 13
New
Dec 20
First Quarter
Dec 28
Full
Jan 4
Last Quarter

Hourly Weather History & Observations

Time (EST) Temp. Windchill Dew Point Humidity Pressure Visibility Wind Dir Wind Speed Gust Speed Precip Events Conditions
12:52 AM 37.9 °F - 36.0 °F 93% 29.60 in 10.0 mi Calm Calm - 0.02 in Rain Light Rain
1:19 AM 37.4 °F 33.8 °F 35.6 °F 93% 29.58 in 10.0 mi South 4.6 mph - 0.01 in Rain Light Rain
1:29 AM 37.4 °F 33.8 °F 35.6 °F 93% 29.57 in 10.0 mi South 4.6 mph - 0.01 in Rain Light Rain
1:50 AM 37.4 °F - 35.6 °F 93% 29.58 in 10.0 mi Calm Calm - 0.01 in   Overcast
1:52 AM 37.9 °F - 35.1 °F 89% 29.61 in 10.0 mi Calm Calm - 0.01 in   Overcast
2:03 AM 37.4 °F 34.9 °F 35.6 °F 93% 29.59 in 10.0 mi SSW 3.5 mph - N/A   Overcast
2:23 AM 37.4 °F - 35.6 °F 93% 29.58 in 10.0 mi Calm Calm - N/A   Overcast
2:52 AM 36.0 °F - 34.0 °F 93% 29.64 in 10.0 mi Calm Calm - N/A   Overcast
3:36 AM 37.4 °F - 33.8 °F 87% 29.63 in 10.0 mi Calm Calm - N/A   Overcast
3:52 AM 37.0 °F - 34.0 °F 89% 29.66 in 10.0 mi Calm Calm - N/A   Overcast
4:19 AM 37.4 °F 34.9 °F 33.8 °F 87% 29.63 in 10.0 mi Variable 3.5 mph - N/A   Overcast
4:39 AM 35.6 °F 32.8 °F 33.8 °F 93% 29.65 in 10.0 mi West 3.5 mph - N/A   Overcast
4:52 AM 36.0 °F 32.1 °F 32.0 °F 86% 29.69 in 10.0 mi WNW 4.6 mph - N/A   Overcast
5:48 AM 33.8 °F 28.6 °F 30.2 °F 87% 29.68 in 10.0 mi WNW 5.8 mph - 0.01 in   Overcast
5:52 AM 34.0 °F 31.0 °F 30.0 °F 85% 29.73 in 10.0 mi West 3.5 mph - 0.01 in   Overcast
6:52 AM 33.1 °F 30.0 °F 28.9 °F 85% 29.75 in 10.0 mi WNW 3.5 mph - N/A   Overcast
7:52 AM 32.0 °F 25.6 °F 26.1 °F 79% 29.77 in 10.0 mi NW 6.9 mph - N/A   Overcast
8:52 AM 32.0 °F 23.6 °F 25.0 °F 75% 29.83 in 10.0 mi WNW 10.4 mph 16.1 mph N/A   Overcast
9:52 AM 30.0 °F 21.1 °F 21.9 °F 72% 29.88 in 10.0 mi WNW 10.4 mph - N/A   Overcast
10:52 AM 30.0 °F 21.7 °F 21.0 °F 69% 29.89 in 10.0 mi WNW 9.2 mph 16.1 mph N/A   Overcast
11:52 AM 30.0 °F 21.7 °F 19.9 °F 66% 29.89 in 10.0 mi West 9.2 mph - N/A   Overcast
12:52 PM 30.0 °F 23.2 °F 21.0 °F 69% 29.91 in 10.0 mi WNW 6.9 mph - N/A   Overcast
2:52 PM 28.9 °F 23.9 °F 18.0 °F 64% 29.97 in 10.0 mi Variable 4.6 mph - N/A   Overcast
3:52 PM 28.0 °F 20.8 °F 17.1 °F 63% 29.99 in 10.0 mi WNW 6.9 mph - N/A   Overcast
4:52 PM 28.0 °F - 17.1 °F 63% 30.03 in 10.0 mi Calm Calm - N/A   Overcast
5:52 PM 27.0 °F - 19.0 °F 72% 30.05 in 10.0 mi Calm Calm - N/A   Overcast
6:03 PM 28.4 °F - 17.6 °F 64% 30.01 in 10.0 mi Calm Calm - N/A   Overcast
6:52 PM 27.0 °F - 18.0 °F 69% 30.07 in 10.0 mi Calm Calm - N/A   Overcast
7:01 PM 26.6 °F - 17.6 °F 69% 30.03 in 10.0 mi Calm Calm - N/A   Overcast
7:52 PM 28.0 °F - 18.0 °F 66% 30.09 in 10.0 mi Calm Calm - N/A   Overcast
8:52 PM 27.0 °F - 19.0 °F 72% 30.12 in 10.0 mi Calm Calm - N/A   Overcast
9:03 PM 26.6 °F - 19.4 °F 74% 30.07 in 10.0 mi Calm Calm - N/A   Overcast
9:28 PM 26.6 °F - 19.4 °F 74% 30.07 in 10.0 mi Calm Calm - N/A   Overcast
9:52 PM 27.0 °F - 19.9 °F 75% 30.13 in 10.0 mi Calm Calm - N/A   Overcast
10:52 PM 27.0 °F 23.0 °F 19.0 °F 72% 30.15 in 10.0 mi NE 3.5 mph - N/A   Overcast
11:52 PM 26.1 °F - 18.0 °F 71% 30.17 in 10.0 mi Calm Calm - N/A   Overcast